Location: Stonelick Lake State Park
(39.2170°N, 84.0850°W)
Time: 17:09:27
(UTC-05:00)

Daily predictions for brighter satellites

Satellite Brightness Start Highest point End
(mag) Time Altitude Azimuth Time Altitude Azimuth Time Altitude Azimuth
USA 215 3.8 18:02:51 10° E 18:08:51 40° NNE 18:14:52 10° NW
Cosmos 332 Rocket 4.0 18:05:08 10° S 18:09:49 55° ESE 18:14:34 10° NNE
Cosmos 1908 3.2 18:06:23 10° N 18:10:16 74° E 18:14:09 10° SSE
Cosmos 1515 Rocket 4.1 18:06:34 10° N 18:10:45 39° ENE 18:14:55 10° SSE
SJ-7 4.4 18:07:25 10° SSE 18:11:29 84° ENE 18:15:31 10° N
Cosmos 1844 4.0 18:07:56 10° NNW 18:13:30 47° ENE 18:19:03 10° SE
SKYMED 2 4.2 18:10:24 10° NNE 18:14:27 37° E 18:18:28 10° SSE
SL-14 R/B 4.4 18:12:39 10° SE 18:15:49 24° E 18:19:01 10° NE
Cosmos 1674 2.8 18:13:43 10° S 18:17:31 83° W 18:21:23 10° N
Elektron 3 4.3 18:12:15 10° NW 18:17:35 70° NE 18:20:40 10° SE
SPOT 3 Rocket 3.6 18:12:53 10° SSE 18:18:01 88° WSW 18:23:13 10° NNW
MSX 3.8 18:12:37 10° SSE 18:18:19 79° ENE 18:24:04 10° N
AQUARIUS 4.5 18:14:22 10° S 18:18:50 74° WSW 18:23:21 10° NNW
Thor Agena Rocket 3.6 18:14:15 10° NNE 18:19:31 89° WNW 18:24:42 10° SSW
Cosmos 1151 Rocket 3.7 18:16:33 10° NNE 18:20:25 32° ENE 18:24:15 10° SE
Cosmos 1634 Rocket 4.1 18:14:42 10° N 18:20:44 52° E 18:26:42 10° SSE
Cosmos 1484 Rocket 3.0 18:17:41 10° SSE 18:21:28 51° ENE 18:25:19 10° N
COSMOS 2428 3.1 18:17:24 10° SSW 18:23:06 70° WNW 18:28:49 10° NNE
Cosmos 1500 Rocket 3.6 18:20:07 10° S 18:24:19 55° E 18:28:34 10° NNE
Cosmos 1125 Rocket 4.0 18:19:29 10° N 18:24:20 37° ENE 18:29:07 10° SE
Molniya-1 4.2 18:21:59 10° SW 18:24:30 61° NW 18:28:53 10° NNE
Cosmos 990 Rocket 4.3 18:20:08 10° NNW 18:25:24 76° WSW 18:30:38 10° S
Cosmos 2237 Rocket 2.7 18:21:31 10° S 18:26:42 40° ESE 18:31:56 10° NE
BREEZE-M DEB (TANK) 3.0 18:21:53 10° NW 18:30:06 81° SW 18:33:11 10° SE
ALOS 3.9 18:28:59 10° E 18:31:25 14° ENE 18:33:52 10° NNE
SL-16 R/B 3.6 18:27:55 10° SE 18:31:37 18° E 18:34:22 13° ENE
Cosmos 44 3.9 18:26:59 10° S 18:31:59 44° ESE 18:36:41 11° NE
IDEFIX/ARIANE 42P 3.7 18:29:11 10° S 18:34:11 48° W 18:39:15 10° NNW
Cosmos 1300 3.1 18:31:17 10° N 18:34:56 40° E 18:38:33 10° SSE
Cosmos 1726 2.4 18:33:25 10° N 18:37:03 44° E 18:40:39 10° SSE
Hubble Space Telescope 3.4 18:35:57 10° SW 18:38:03 14° SSW 18:40:09 10° SSE
Cosmos 841 Rocket 3.9 18:34:09 10° SSW 18:39:22 66° WNW 18:44:38 10° NNE
Cosmos 371 Rocket 3.2 18:35:25 10° SSW 18:40:13 81° ESE 18:45:02 10° NNE
NOSS 0 Rocket 3.9 18:35:19 10° SSW 18:41:28 67° ESE 18:47:38 10° NNE
BREEZE-M DEB (TANK) 2.3 18:39:18 10° SW 18:41:50 46° SE 18:43:04 22° ENE
Lacrosse 5 rocket 2.6 18:39:33 10° NNW 18:42:27 20° NE 18:43:38 18° ENE
CZ-4 R/B 3.7 18:39:21 10° SSW 18:42:40 27° W 18:46:02 10° NW
OTV 4 0.8 18:44:41 10° W 18:47:37 58° S 18:49:25 20° ESE
CENTAUR R/B 3.5 18:44:41 10° WSW 18:50:30 44° NW 18:57:04 10° NNE
Meteor 1-11 4.3 18:47:48 10° S 18:53:19 59° E 18:58:58 10° NNE
Resurs 01 Rocket 2.9 18:54:23 20° NE 18:54:23 20° NE 18:57:06 10° NNE
Cosmos 2084 3.4 18:51:17 10° SW 18:55:10 69° NW 18:58:06 16° NNE
Cosmos 44 Rocket 3.7 18:54:34 10° SW 18:59:41 66° WNW 19:04:27 12° NNE
Meteor 1-28 Rocket 3.1 18:56:12 10° NNE 18:59:57 88° ESE 19:03:39 10° SSW
Cosmos 1844 Rocket 3.5 18:54:30 10° NNW 19:00:01 54° WSW 19:05:28 10° S
Cosmos 1328 4.2 18:56:29 10° SSW 19:00:23 64° W 19:04:20 10° N
Lacrosse 5 4.1 18:59:12 10° NW 19:01:31 13° NNW 19:03:49 10° N
CZ-3A R/B 3.3 18:57:43 10° NW 19:02:20 38° NE 19:04:51 23° E
COSMO-SKYMED 1 3.1 18:58:12 10° N 19:02:30 61° WNW 19:06:46 10° SSW
Aureole 2 Rocket 2.8 18:59:30 10° S 19:02:57 49° ESE 19:04:38 28° NE
Cosmos 1707 Rocket 4.2 19:02:08 10° NNE 19:06:02 32° ENE 19:09:55 10° SE
Cosmos 1461 3.8 19:06:52 10° S 19:10:31 29° ESE 19:10:31 29° ESE
SJ-6B 2.8 19:08:41 10° SSE 19:12:40 62° ENE 19:16:45 10° N
Cosmos 2279 Rocket 3.9 19:06:53 10° N 19:13:08 79° E 19:19:21 10° S
Cosmos 1980 3.9 19:08:19 10° SSW 19:13:58 74° WNW 19:19:40 10° NNE
Cosmos 1666 Rocket 4.0 19:11:25 10° SSE 19:15:23 37° E 19:15:24 37° E
Milstar 3 4.2 19:11:25 10° WSW 19:17:04 29° S 19:23:21 10° SE
Cosmos 2058 3.1 19:16:08 10° SSW 19:20:14 71° W 19:24:21 10° N
FENGYUN 3A 3.8 19:19:21 10° SE 19:24:28 48° ENE 19:29:37 10° N
Cosmos 304 Rocket 3.7 19:21:26 10° S 19:26:12 68° ESE 19:28:08 35° NNE
Cosmos 2333 Rocket 3.1 19:21:05 10° SW 19:26:32 48° WNW 19:32:00 10° NNE
Cosmos 1703 3.1 19:24:18 10° S 19:28:12 80° E 19:29:16 46° NNE
Cosmos 2180 Rocket 4.4 19:24:58 10° N 19:31:10 90° WSW 19:37:23 10° S
Nadezhda 4 Rocket 3.9 19:26:17 10° S 19:32:25 62° E 19:38:37 10° NNE
Meteor 2-10 4.4 19:30:47 10° NNW 19:35:48 64° W 19:40:57 10° S
Cosmos 372 Rocket 4.2 19:31:16 10° NNW 19:36:20 68° WSW 19:41:23 10° S
METEOR-M 4.4 19:31:38 10° S 19:36:57 68° WSW 19:42:18 10° NNW
Cosmos 2219 Rocket 3.9 19:35:12 10° WSW 19:40:06 30° WNW 19:45:01 10° N
Cosmos 1340 Rocket 3.7 19:39:14 10° SSW 19:43:03 47° WNW 19:45:23 21° NNW
Cosmos 1356 Rocket 3.6 19:40:23 10° S 19:43:34 56° S 19:43:34 56° S
BREEZE-M DEB (TANK) 4.1 19:43:08 10° WNW 19:43:54 15° NW 19:43:54 15° NW
Cosmos 2278 Rocket 3.0 19:41:01 10° NNW 19:46:31 51° WSW 19:51:58 10° S
Cosmos 1092 Rocket 3.9 19:43:30 10° S 19:49:42 61° E 19:51:46 41° NNE
USA 215 3.5 19:45:33 12° SE 19:51:37 65° SW 19:58:08 10° NW
Cosmos 1626 3.1 19:49:54 10° SSW 19:52:36 43° SW 19:52:36 43° SW
Cosmos 1805 Rocket 4.4 19:50:05 10° SSW 19:54:24 50° W 19:57:08 21° NNW
Aureole 1 Rocket 4.4 19:56:30 10° S 19:59:15 35° SSE 19:59:15 35° SSE
ALOS 2.7 20:03:45 10° S 20:08:20 59° W 20:12:57 10° NNW
Cosmos 2237 Rocket 3.9 20:06:05 10° WSW 20:10:51 28° WNW 20:14:53 13° N
Spot 2 Rocket 3.9 20:08:48 10° S 20:13:46 60° WSW 20:18:46 10° NNW
SL-16 R/B 2.6 20:09:37 10° SW 20:15:10 58° WNW 20:16:19 49° NNW
Sich 1 4.3 20:14:11 10° SSW 20:17:56 41° W 20:17:56 41° W
Lacrosse 5 rocket 3.6 20:18:05 10° NW 20:19:24 20° WNW 20:19:24 20° WNW
Cosmos 2297 4.4 20:20:04 10° NNW 20:25:36 53° WSW 20:27:01 42° SSW
Resurs 01 Rocket 3.7 20:31:56 24° NW 20:31:56 24° NW 20:34:05 10° NNW
USA 229 DEB 3.9 20:26:21 10° SSW 20:31:47 60° SSW 20:31:47 60° SSW
USA 229 3.9 20:26:27 10° SSW 20:31:49 59° SSW 20:31:49 59° SSW
H-2A ROCKET BODY 4.1 20:53:56 10° WSW 21:02:29 28° SW 21:02:29 28° SW
